UNISAT-6

Last updated on Thu Mar 05 2026 00:03:21 GMT+0000 (Coordinated Universal Time)

1 40012U 14033C 26063.42691972 .00005624 00000+0 61273-3 0 9993 2 40012 97.7713 218.1134 0046385 54.9317 305.6237 14.87591099630589
UTC large
Height (km)
Speed (km/s)
/
Latitude / Longitude
Inclination (degrees)
Orbital Period (minutes)
Azimuth
Elevation
Range (km)
Doppler Factor

Next 0 passes for location: London (51.5072 / 0.1276)

Sorry there are no passes over London.